Weather History for Milton, FL

Change the Weather History Date:

Sunday, November 20, 2011

  Actual Average (KNSE) Record (KNSE)
Temperature  
Mean Temperature 70 °F -  
Max Temperature 77 °F 66 °F 81 °F (1998)
Min Temperature 62 °F 48 °F 35 °F (2006)
Cooling Degree Days 4    
Growing Degree Days 20 (Base 50)    
Moisture  
Dew Point 65 °F    
Average Humidity 88    
Maximum Humidity 100    
Minimum Humidity 65    
Precipitation  
Precipitation 0.00 in - - ()
Sea Level Pressure  
Sea Level Pressure 30.21 in    
Wind  
Wind Speed 5 mph (SE)    
Max Wind Speed 10 mph    
Max Gust Speed -    
Visibility 7 miles    
Events Fog    
Averages and records for this station are not official NWS values.
T = Trace of Precipitation, MM = Missing Value Source: NWS Daily Summary

Daily Weather History Graph

Daily Weather History Graph

Search for Another Location

Airport:

Trip Planner

Search our weather history database for the weather conditions in past years. The results will help you decide how hot, cold, wet, or windy it might be!

Date:

Astronomy

Nov. 20, 2011 Rise Set
Actual Time 6:18 AM CST 4:48 PM CST
Civil Twilight 5:52 AM CST 5:14 PM CST
Nautical Twilight 5:23 AM CST 5:43 PM CST
Astronomical Twilight 4:54 AM CST 6:12 PM CST
Moon 1:06 AM CST (11/20) 1:20 PM CST (11/20)
Length of Visible Light 11h 21m
Length of Day
10h 30m
Waning Crescent, 27% of the Moon is Illuminated
Nov 20
Waning Crescent
Nov 25
New
Dec 2
First Quarter
Dec 10
Full
Dec 17
Last Quarter

Hourly Weather History & Observations

Time (CST) Temp. Dew Point Humidity Pressure Visibility Wind Dir Wind Speed Gust Speed Precip Events Conditions
12:56 AM 63.0 °F 62.1 °F 97% 30.15 in 9.0 mi ESE 6.9 mph - N/A   Clear
1:18 AM 62.6 °F 60.8 °F 94% 30.19 in 7.0 mi ESE 4.6 mph - N/A   Scattered Clouds
1:28 AM 62.6 °F 62.6 °F 100% 30.19 in 8.0 mi ESE 5.8 mph - N/A   Mostly Cloudy
1:56 AM 64.0 °F 63.0 °F 96% 30.15 in 10.0 mi East 6.9 mph - N/A   Overcast
2:36 AM 64.4 °F 62.6 °F 94% 30.19 in 10.0 mi East 4.6 mph - N/A   Overcast
2:56 AM 64.0 °F 63.0 °F 96% 30.16 in 2.5 mi ESE 4.6 mph - N/A   Overcast
3:06 AM 64.4 °F 62.6 °F 94% 30.20 in 1.2 mi ESE 4.6 mph - N/A   Overcast
3:19 AM 64.4 °F 62.6 °F 94% 30.20 in 0.8 mi East 3.5 mph - N/A   Mist
4:56 AM 64.9 °F 64.0 °F 97% 30.17 in 0.5 mi East 4.6 mph - N/A Fog Fog
5:56 AM 64.9 °F 64.9 °F 100% 30.18 in 0.5 mi ENE 4.6 mph - N/A Fog Fog
6:56 AM 66.0 °F 64.9 °F 96% 30.19 in 0.2 mi East 3.5 mph - N/A Fog Fog
7:39 AM 66.2 °F 66.2 °F 100% 30.25 in 2.0 mi SE 4.6 mph - N/A   Overcast
7:48 AM 66.2 °F 66.2 °F 100% 30.25 in 4.0 mi SE 4.6 mph - N/A   Overcast
7:56 AM 66.9 °F 66.0 °F 97% 30.21 in 4.0 mi SE 4.6 mph - N/A   Overcast
8:56 AM 68.0 °F 66.9 °F 96% 30.23 in 10.0 mi ESE 5.8 mph - N/A   Overcast
9:32 AM 69.8 °F 66.2 °F 88% 30.28 in 10.0 mi SE 6.9 mph - N/A   Overcast
9:56 AM 71.1 °F 66.9 °F 87% 30.25 in 10.0 mi ESE 8.1 mph - N/A   Mostly Cloudy
10:30 AM 73.4 °F 66.2 °F 78% 30.28 in 10.0 mi SE 9.2 mph - N/A   Overcast
10:56 AM 73.9 °F 68.0 °F 82% 30.23 in 10.0 mi SSE 6.9 mph - N/A   Overcast
11:43 AM 75.2 °F 68.0 °F 78% 30.26 in 10.0 mi SSE 9.2 mph - N/A   Overcast
11:56 AM 75.9 °F 68.0 °F 76% 30.21 in 10.0 mi South 9.2 mph - N/A   Scattered Clouds
12:03 PM 75.2 °F 68.0 °F 78% 30.25 in 10.0 mi SSE 8.1 mph - N/A   Mostly Cloudy
12:56 PM 77.0 °F 66.9 °F 71% 30.19 in 10.0 mi South 5.8 mph - N/A   Mostly Cloudy
1:47 PM 77.0 °F 64.4 °F 65% 30.22 in 10.0 mi SSE 10.4 mph - N/A   Scattered Clouds
1:56 PM 77.0 °F 66.0 °F 69% 30.18 in 10.0 mi SSW 8.1 mph - N/A   Scattered Clouds
2:20 PM 73.4 °F 66.2 °F 78% 30.22 in 10.0 mi South 9.2 mph - N/A   Mostly Cloudy
2:28 PM 75.2 °F 66.2 °F 73% 30.22 in 10.0 mi South 8.1 mph - N/A   Mostly Cloudy
2:56 PM 75.9 °F 66.9 °F 74% 30.18 in 10.0 mi South 9.2 mph - N/A   Mostly Cloudy
3:04 PM 75.2 °F 66.2 °F 73% 30.22 in 10.0 mi South 10.4 mph - N/A   Mostly Cloudy
3:39 PM 73.4 °F 66.2 °F 78% 30.22 in 10.0 mi South 6.9 mph - N/A   Scattered Clouds
3:56 PM 75.0 °F 66.9 °F 76% 30.18 in 10.0 mi South 8.1 mph - N/A   Scattered Clouds
4:56 PM 71.1 °F 64.9 °F 81% 30.19 in 10.0 mi Calm Calm - N/A   Clear
5:56 PM 70.0 °F 66.0 °F 87% 30.19 in 10.0 mi Calm Calm - N/A   Clear
6:56 PM 69.1 °F 66.0 °F 90% 30.21 in 10.0 mi Calm Calm - N/A   Clear
7:56 PM 66.9 °F 64.9 °F 93% 30.21 in 10.0 mi Calm Calm - N/A   Clear
8:56 PM 66.9 °F 64.9 °F 93% 30.22 in 10.0 mi Calm Calm - N/A   Clear
9:56 PM 64.9 °F 64.0 °F 97% 30.21 in 9.0 mi ESE 4.6 mph - N/A   Clear
10:56 PM 64.9 °F 64.0 °F 97% 30.20 in 1.8 mi Calm Calm - N/A   Clear
11:12 PM 66.2 °F 64.4 °F 94% 30.23 in 3.0 mi Calm Calm - N/A   Clear
11:19 PM 64.4 °F 64.4 °F 100% 30.23 in 1.8 mi SE 3.5 mph - N/A   Clear
11:31 PM 64.4 °F 64.4 °F 100% 30.23 in 0.5 mi ESE 3.5 mph - N/A Fog Fog
11:39 PM 64.4 °F 64.4 °F 100% 30.23 in 0.8 mi ESE 3.5 mph - N/A   Mist
11:56 PM 64.9 °F 64.0 °F 97% 30.19 in 0.5 mi Calm Calm - N/A Fog Fog